Regional Weather Roundup
Issued by NWS

Home | Current Version | Previous Version | Text Only | Print | Product List | Glossary Off
Versions: 1 2 3 4 5 6 7 8 9 10 11 12 13 14 15 16 17 18 19 20 21 22 23 24 25 26 27 28 29 30 31 32 33 34 35 36 37 38 39 40 41 42 43 44 45 46 47 48 49 50

000
ASUS43 KBIS 291110
RWRND

NORTH DAKOTA REGIONAL WEATHER ROUNDUP
NATIONAL WEATHER SERVICE BISMARCK ND
600 AM CDT SUN MAR 29 2015

NOTE: "FAIR" INDICATES FEW OR NO CLOUDS BELOW 12,000 FEET WITH NO
SIGNIFICANT WEATHER AND/OR OBSTRUCTIONS TO VISIBILITY.


NDZ001>003-009>011-017-291200-
NORTHWEST NORTH DAKOTA

CITY           SKY/WX    TMP DP  RH WIND       PRES   REMARKS
WILLISTON      CLEAR     37  33  85 NW16      30.00R
MINOT          CLEAR     36  31  82 NW21G29   29.83R
MINOT AFB      CLEAR     36  35  99 NW23G30   29.82R
$$

NDZ018>021-031>035-040>046-291200-
SOUTHWEST NORTH DAKOTA

CITY           SKY/WX    TMP DP  RH WIND       PRES   REMARKS
BISMARCK       CLOUDY    41  36  82 NW31G45   29.81R
DICKINSON      CLEAR     35  31  85 NW17      29.97R
GARRISON         N/A     37  33  85 NW31G38   29.84R
HETTINGER ARPT PTCLDY    37  32  82 NW30G39   29.98R
$$

NDZ004>008-012>016-024-026-027-054-291200-
NORTHEAST NORTH DAKOTA

CITY           SKY/WX    TMP DP  RH WIND       PRES   REMARKS
GRAND FORKS    CLOUDY    41  37  86 N30G46    29.52R
DEVILS LAKE    CLOUDY    39  34  81 N26G33    29.65R
$$

NDZ022-023-025-028>030-036>039-047>053-291200-
SOUTHEAST NORTH DAKOTA

CITY           SKY/WX    TMP DP  RH WIND       PRES   REMARKS
FARGO          RAIN      47  43  86 NW24G30   29.47R FOG
JAMESTOWN      LGT RAIN  40  39  97 NW29G40   29.62R FOG
$$




USA.gov is the U.S. government's official web portal to all federal, state and local government web resources and services.